Location: City of Moscow
(46.7306°N, 116.9989°W)
Time: 03:41:54
(UTC+00:00)

USA 234 - Pass Details

Date: 09 March 2026
Orbit: 1102 x 1106 km, 123.0° (Epoch: 4 January)

Event Time Altitude Azimuth Distance (km) Brightness Sun altitude
Exits shadow 02:52:08 14° 79° (E) 2,640 4.7 -12.4°
Maximum altitude 02:57:16 42° 15° (NNE) 1,521 4.0 -13.3°
Drops below altitude 10° 03:03:21 10° 307° (NW) 2,971 6.5 -14.4°
Sets 03:05:57 0° 301° (WNW) 3,931 7.5 -14.8°
